Kuchera_Ratio
0.0 0.0 0.0 0.0 0.0 0.0 0.0 0.0 0.0 0.0 0.0 0.0 0.0 0.0 0.0 0.0 0.0 0.0 0.0 0.0 0.0 0.0 0.0 0.0 0.0 0.0 0.0
0.0 0.0 0.0 0.0 0.0 0.0 0.0 0.0 0.0 0.0 0.0 0.0 0.0 0.0 0.0 0.0 0.0 0.0 0.0 0.0 0.0 0.0 0.0 0.0 0.0 0.0 0.0
0.0 0.0 0.0 0.0 0.0 0.0 0.0 0.0 0.0 0.0 0.0 0.0 0.0 0.0 0.0 0.0 0.0 0.0 0.0 0.0 0.0 0.0 0.0 0.0 0.0 0.0 0.0
0.0 0.0 0.0 0.0 0.0 0.0 0.0 0.0 0.0 0.0 0.0 0.0 0.0 0.0 0.0 0.0 0.0 0.0 0.0 0.0 0.0 0.0 0.0 0.0 0.0 0.0 0.0
0.0 0.0 0.0 0.0 0.0 0.0 0.0 0.0 0.0 0.0 0.0 0.0 0.0 0.0 0.0 0.0 0.0 0.0 0.0 0.0 0.0 0.0 0.0 0.0 0.0 0.0 0.0
0.0 0.0 0.0 0.0 0.0 0.0 0.0 0.0 0.0 0.0 0.2 0.0 0.0 0.0 0.0 0.0 0.0 0.0 0.0 0.0 0.0 0.0 0.0 0.0 0.0 0.0 0.0
0.0 0.0 0.0 0.0 0.0 0.0 0.0 0.0 0.6 0.3 0.1 0.5 1.2 0.0 0.0 0.0 0.0 0.0 0.0 0.0 0.0 0.0 0.0 0.0 0.0 0.0 0.0
0.0 0.0 0.0 0.0 0.0 0.0 0.0 0.3 1.9 2.4 1.9 1.8 3.1 1.7 1.3 0.8 0.0 0.0 0.0 0.0 0.0 0.0 0.0 0.0 0.0 0.0 0.0
0.0 0.0 0.0 0.0 0.0 0.8 2.8 3.8 4.9 3.7 3.5 3.9 4.5 3.7 2.2 1.9 2.1 0.0 0.0 0.0 0.0 0.0 0.0 0.0 0.0 0.0 0.0
0.0 0.0 0.0 0.0 0.0 2.7 3.6 5.0 4.9 5.1 4.3 5.3 4.9 5.1 4.4 3.4 1.9 2.5 2.4 0.0 0.0 0.0 0.0 0.0 0.0 0.0 0.0
0.0 0.0 0.8 2.6 4.1 4.4 4.6 4.6 4.8 5.8 6.4 7.1 6.4 7.3 7.1 6.0 4.9 4.4 4.5 3.3 2.9 1.3 0.0 0.0 0.0 0.0 0.5
0.0 1.5 2.8 3.3 4.3 5.0 5.2 5.7 6.1 6.2 6.7 7.3 7.2 8.0 7.9 7.7 7.7 6.6 5.2 5.0 5.1 4.7 4.1 0.5 0.0 0.0 0.0
1.5 1.4 1.5 1.8 4.0 5.8 6.1 7.2 7.7 8.0 8.7 9.3 9.2 9.6 8.7 8.4 8.7 9.2 8.7 6.2 6.6 6.3 6.3 5.4 4.6 3.1 3.9
0.8 2.0 3.5 4.8 5.6 7.2 7.5 7.7 8.2 8.4 9.0 9.8 10.4 10.3 9.3 8.5 8.7 8.9 10.3 10.6 8.9 8.7 8.6 7.8 6.4 4.8 5.4
4.0 5.0 5.8 6.5 7.3 7.8 8.6 9.0 9.2 8.3 9.6 11.1 10.6 11.6 11.6 10.6 9.2 10.7 10.9 10.8 11.0 10.3 10.1 10.6 9.2 8.3 7.5
5.9 5.8 6.1 6.9 7.3 8.5 9.4 9.4 10.1 10.3 10.8 12.0 12.3 12.2 12.1 9.6 10.0 11.1 11.7 11.6 11.2 11.2 10.7 10.7 10.3 9.7 8.7
5.8 5.5 5.3 6.2 7.0 8.9 9.6 10.7 11.6 11.9 11.8 12.4 12.9 12.5 12.2 12.2 11.5 6.9 12.4 12.4 12.2 12.0 11.8 11.4 10.0 10.3 9.2